N7DTY Weather Reports


time (UTC)temp
C
wind
direction
speed
KPH
gust
KPH
rain 1hr
cm
rain 24hr
cm
rain mn
cm
humidity
%
barometer
mb
20260503203104 23 24 3.2 8.0 0.00 0.00 0.00 41 1012.9
20260503201546 23 345 3.2 16.1 0.00 0.00 0.00 46 1013.0
20260503200043 22 227 4.8 12.9 0.00 0.00 0.00 48 1013.3
20260503194544 22 5 3.2 9.7 0.00 0.00 0.00 56 1013.3
20260503193041 22 26 6.4 16.1 0.00 0.00 0.00 54 1013.4
20260503191546 21 206 3.2 14.5 0.00 0.00 0.00 56 1013.5
20260503190042 22 15 1.6 8.0 0.00 0.00 0.00 58 1013.4
20260503184534 22 74 1.6 8.0 0.00 0.00 0.00 55 1013.5
20260503183032 21 323 0.0 8.0 0.00 0.00 0.00 60 1013.6
20260503181527 21 21 1.6 6.4 0.00 0.00 0.00 63 1013.8
20260503180023 21 181 0.0 8.0 0.00 0.00 0.00 63 1014.1
20260503174520 19 202 1.6 8.0 0.00 0.00 0.00 67 1014.2
20260503173017 20 205 4.8 8.0 0.00 0.00 0.00 67 1014.3
20260503171513 19 27 1.6 6.4 0.00 0.00 0.00 66 1014.4
20260503081602 11 204 0.0 1.6 0.00 0.00 0.00 84 1014.3
20260503071553 12 204 0.0 0.0 0.00 0.00 0.00 82 1014.2
20260503060110 12 204 0.0 0.0 0.00 0.00 0.00 82 1014.0
20260503054601 12 204 0.0 0.0 0.00 0.00 0.00 82 1014.0
20260503053047 13 204 0.0 0.0 0.00 0.00 0.00 81 1014.1
20260503051546 13 204 0.0 0.0 0.00 0.00 0.00 81 1014.2
20260503050045 13 204 0.0 0.0 0.00 0.00 0.00 80 1014.1
20260503044548 13 204 0.0 0.0 0.00 0.00 0.00 79 1014.1
20260503043048 13 204 0.0 0.0 0.00 0.00 0.00 80 1014.1
20260503041546 13 204 0.0 0.0 0.00 0.00 0.00 79 1013.9
20260503040042 14 204 0.0 0.0 0.00 0.00 0.00 77 1013.7
20260503034542 14 199 0.0 0.0 0.00 0.00 0.00 75 1013.5
20260503033041 15 190 0.0 1.6 0.00 0.00 0.00 75 1013.3
20260503031545 15 190 0.0 0.0 0.00 0.00 0.00 74 1013.4
20260503030046 16 190 0.0 0.0 0.00 0.00 0.00 75 1013.3
20260503024540 16 190 0.0 1.6 0.00 0.00 0.00 74 1013.2
20260503023039 16 190 0.0 3.2 0.00 0.00 0.00 71 1013.2
20260503021538 17 190 0.0 1.6 0.00 0.00 0.00 70 1013.3
20260503020037 17 190 0.0 1.6 0.00 0.00 0.00 69 1013.4
20260503014636 17 190 0.0 3.2 0.00 0.00 0.00 70 1013.6
20260503013036 17 196 3.2 4.8 0.00 0.00 0.00 67 1013.6
20260503011535 18 219 0.0 3.2 0.00 0.00 0.00 68 1013.8
20260503010036 18 188 0.0 4.8 0.00 0.00 0.00 66 1013.7
20260503004531 18 173 1.6 4.8 0.00 0.00 0.00 68 1013.9
20260503003035 18 257 1.6 8.0 0.00 0.00 0.00 67 1014.0
20260503001529 19 200 1.6 9.7 0.00 0.00 0.00 66 1014.0
20260503000026 20 180 1.6 8.0 0.00 0.00 0.00 67 1014.2
20260502234534 20 185 3.2 9.7 0.00 0.00 0.00 67 1014.3
20260502233025 21 288 1.6 11.3 0.00 0.00 0.00 64 1014.4
20260502231525 23 342 4.8 9.7 0.00 0.00 0.00 46 1014.6
20260502230021 23 328 4.8 9.7 0.00 0.00 0.00 49 1014.7
20260502224519 23 5 3.2 9.7 0.00 0.00 0.00 49 1014.9
20260502223018 22 360 4.8 12.9 0.00 0.00 0.00 53 1015.0
20260502221518 22 257 4.8 12.9 0.00 0.00 0.00 49 1015.2
20260502220016 22 40 1.6 6.4 0.00 0.00 0.00 54 1015.4
20260502214531 22 42 1.6 8.0 0.00 0.00 0.00 57 1015.5
20260502213012 21 38 3.2 8.0 0.00 0.00 0.00 55 1015.6
20260502211517 21 239 3.2 6.4 0.00 0.00 0.00 54 1015.7
20260502210021 22 24 3.2 6.4 0.00 0.00 0.00 52 1016.0
20260502204512 21 360 1.6 14.5 0.00 0.00 0.00 57 1016.0